Time,TemperatureF,DewpointF,PressureIn,WindDirection,WindDirectionDegrees,WindSpeedMPH,WindSpeedGustMPH,Humidity,HourlyPrecipIn,Conditions,Clouds,dailyrainin,SoftwareType,DateUTC
2013-11-07 00:01:00,35.2,16.5,27.73,East,91,3.6,8.3,46,0.00,,---,0.00,VWS V14.01,2013-11-07 08:01:00,
2013-11-07 00:05:00,35.2,16.5,27.73,East,91,8.3,8.3,46,0.00,,---,0.00,VWS V14.01,2013-11-07 08:05:00,
2013-11-07 00:10:00,35.4,16.2,27.73,East,100,6.7,8.1,45,0.00,,---,0.00,VWS V14.01,2013-11-07 08:10:00,
2013-11-07 00:15:00,35.4,16.2,27.70,East,81,7.6,8.3,45,0.00,,---,0.00,VWS V14.01,2013-11-07 08:15:00,
2013-11-07 00:20:00,35.4,16.2,27.70,ENE,76,7.6,8.1,45,0.00,,---,0.00,VWS V14.01,2013-11-07 08:20:00,
2013-11-07 00:25:00,35.4,16.2,27.70,ENE,65,7.6,10.5,45,0.00,,---,0.00,VWS V14.01,2013-11-07 08:25:00,
2013-11-07 00:30:00,35.4,16.2,27.70,East,85,4.9,6.7,45,0.00,,---,0.00,VWS V14.01,2013-11-07 08:30:00,
2013-11-07 00:35:00,35.4,16.2,27.70,East,96,6.3,6.3,45,0.00,,---,0.00,VWS V14.01,2013-11-07 08:35:00,
2013-11-07 00:40:00,35.4,15.7,27.70,East,80,6.7,6.7,44,0.00,,---,0.00,VWS V14.01,2013-11-07 08:40:00,
2013-11-07 00:45:00,35.6,15.9,27.70,East,88,5.4,5.8,44,0.00,,---,0.00,VWS V14.01,2013-11-07 08:45:00,
2013-11-07 00:50:00,35.6,15.9,27.70,East,94,7.6,7.6,44,0.00,,---,0.00,VWS V14.01,2013-11-07 08:50:00,
2013-11-07 00:55:00,35.6,15.9,27.70,ENE,71,7.6,7.6,44,0.00,,---,0.00,VWS V14.01,2013-11-07 08:55:00,
2013-11-07 01:00:00,35.6,15.3,27.70,East,81,3.6,6.3,43,0.00,,---,0.00,VWS V14.01,2013-11-07 09:00:00,
2013-11-07 01:05:00,35.6,15.3,27.70,ENE,78,8.3,8.3,43,0.00,,---,0.00,VWS V14.01,2013-11-07 09:05:00,
2013-11-07 01:10:00,35.6,15.3,27.70,East,84,8.1,8.1,43,0.00,,---,0.00,VWS V14.01,2013-11-07 09:10:00,
2013-11-07 01:15:00,35.8,16.0,27.67,East,86,6.3,6.3,44,0.00,,---,0.00,VWS V14.01,2013-11-07 09:15:00,
2013-11-07 01:20:00,35.8,16.0,27.67,East,81,6.3,7.6,44,0.00,,---,0.00,VWS V14.01,2013-11-07 09:20:00,
2013-11-07 01:25:00,35.8,16.0,27.67,East,96,3.6,5.8,44,0.00,,---,0.00,VWS V14.01,2013-11-07 09:25:00,
2013-11-07 01:30:00,35.8,16.0,27.67,East,94,4.0,5.8,44,0.00,,---,0.00,VWS V14.01,2013-11-07 09:30:00,
2013-11-07 01:35:00,35.8,16.0,27.67,ESE,115,6.3,6.3,44,0.00,,---,0.00,VWS V14.01,2013-11-07 09:35:00,
2013-11-07 01:40:00,35.8,16.5,27.67,East,98,5.4,7.6,45,0.00,,---,0.00,VWS V14.01,2013-11-07 09:40:00,
2013-11-07 01:45:00,36.0,16.7,27.67,ENE,75,6.3,6.3,45,0.00,,---,0.00,VWS V14.01,2013-11-07 09:45:00,
2013-11-07 01:50:00,36.0,16.7,27.67,East,79,5.8,6.7,45,0.00,,---,0.00,VWS V14.01,2013-11-07 09:50:00,
2013-11-07 01:55:00,36.0,16.7,27.67,East,95,3.6,4.9,45,0.00,,---,0.00,VWS V14.01,2013-11-07 09:55:00,
2013-11-07 02:00:00,36.0,16.7,27.64,ENE,78,0.0,2.7,45,0.00,,---,0.00,VWS V14.01,2013-11-07 10:00:00,
2013-11-07 02:05:00,35.8,16.5,27.64,East,82,4.9,5.4,45,0.00,,---,0.00,VWS V14.01,2013-11-07 10:05:00,
2013-11-07 02:10:00,36.0,16.7,27.64,East,90,2.7,3.6,45,0.00,,---,0.00,VWS V14.01,2013-11-07 10:10:00,
2013-11-07 02:15:00,36.0,16.7,27.67,East,82,2.7,4.0,45,0.00,,---,0.00,VWS V14.01,2013-11-07 10:15:00,
2013-11-07 02:20:00,35.8,16.5,27.67,East,82,3.1,3.1,45,0.00,,---,0.00,VWS V14.01,2013-11-07 10:20:00,
2013-11-07 02:25:00,35.8,17.0,27.67,East,82,4.5,4.5,46,0.00,,---,0.00,VWS V14.01,2013-11-07 10:25:00,
2013-11-07 02:30:00,36.0,17.2,27.67,ENE,77,3.6,5.4,46,0.00,,---,0.00,VWS V14.01,2013-11-07 10:30:00,
2013-11-07 02:35:00,36.0,17.2,27.67,East,86,0.0,2.2,46,0.00,,---,0.00,VWS V14.01,2013-11-07 10:35:00,
2013-11-07 02:40:00,36.0,17.2,27.67,East,85,0.0,0.0,46,0.00,,---,0.00,VWS V14.01,2013-11-07 10:40:00,
2013-11-07 02:45:00,36.0,17.2,27.64,East,93,0.0,3.6,46,0.00,,---,0.00,VWS V14.01,2013-11-07 10:45:00,
2013-11-07 02:50:00,36.0,17.7,27.64,East,89,3.1,4.0,47,0.00,,---,0.00,VWS V14.01,2013-11-07 10:50:00,
2013-11-07 02:55:00,36.0,17.7,27.64,East,98,3.1,3.1,47,0.00,,---,0.00,VWS V14.01,2013-11-07 10:55:00,
2013-11-07 03:00:00,36.0,18.2,27.64,East,80,5.8,7.6,48,0.00,,---,0.00,VWS V14.01,2013-11-07 11:00:00,
2013-11-07 03:05:00,36.0,18.2,27.64,ENE,71,5.4,5.8,48,0.00,,---,0.00,VWS V14.01,2013-11-07 11:05:00,
2013-11-07 03:10:00,36.0,18.7,27.64,East,85,5.8,8.3,49,0.00,,---,0.00,VWS V14.01,2013-11-07 11:10:00,
2013-11-07 03:15:00,35.8,18.5,27.61,ENE,64,3.1,3.1,49,0.00,,---,0.00,VWS V14.01,2013-11-07 11:15:00,
2013-11-07 03:20:00,35.8,18.5,27.61,NE,54,5.4,6.3,49,0.00,,---,0.00,VWS V14.01,2013-11-07 11:20:00,
2013-11-07 03:25:00,36.0,19.1,27.61,ESE,122,4.9,4.9,50,0.00,,---,0.00,VWS V14.01,2013-11-07 11:25:00,
2013-11-07 03:30:00,36.0,19.1,27.61,NE,50,4.0,5.4,50,0.04,,---,0.04,VWS V14.01,2013-11-07 11:30:00,
2013-11-07 03:34:00,36.0,19.1,27.61,ENE,69,4.5,7.6,50,0.04,,---,0.04,VWS V14.01,2013-11-07 11:34:00,
2013-11-07 03:39:00,36.0,19.1,27.61,ENE,74,5.8,5.8,50,0.04,,---,0.04,VWS V14.01,2013-11-07 11:39:00,
2013-11-07 03:44:00,36.0,19.6,27.61,East,95,8.1,8.1,51,0.04,,---,0.04,VWS V14.01,2013-11-07 11:44:00,
2013-11-07 03:49:00,36.0,19.6,27.61,ENE,68,6.3,6.3,51,0.04,,---,0.04,VWS V14.01,2013-11-07 11:49:00,
2013-11-07 03:54:00,36.0,19.6,27.61,ENE,78,6.3,6.3,51,0.04,,---,0.04,VWS V14.01,2013-11-07 11:54:00,
2013-11-07 03:59:00,36.0,19.6,27.61,ENE,72,5.8,6.7,51,0.04,,---,0.04,VWS V14.01,2013-11-07 11:59:00,
2013-11-07 04:04:00,36.0,19.6,27.61,ENE,76,5.8,7.2,51,0.04,,---,0.04,VWS V14.01,2013-11-07 12:04:00,
2013-11-07 04:09:00,36.0,19.6,27.61,East,81,3.1,4.9,51,0.04,,---,0.04,VWS V14.01,2013-11-07 12:09:00,
2013-11-07 04:14:00,36.0,19.6,27.58,ENE,73,5.4,6.3,51,0.04,,---,0.04,VWS V14.01,2013-11-07 12:14:00,
2013-11-07 04:19:00,36.0,19.6,27.58,NE,47,3.6,4.5,51,0.04,,---,0.04,VWS V14.01,2013-11-07 12:19:00,
2013-11-07 04:24:00,36.0,19.6,27.58,ENE,72,5.4,5.8,51,0.04,,---,0.04,VWS V14.01,2013-11-07 12:24:00,
2013-11-07 04:29:00,36.0,19.6,27.58,East,81,0.0,3.1,51,0.04,,---,0.04,VWS V14.01,2013-11-07 12:29:00,
2013-11-07 04:34:00,36.0,19.6,27.58,East,93,3.1,5.4,51,0.04,,---,0.08,VWS V14.01,2013-11-07 12:34:00,
2013-11-07 04:39:00,36.0,20.1,27.58,East,88,3.6,7.6,52,0.04,,---,0.08,VWS V14.01,2013-11-07 12:39:00,
2013-11-07 04:43:00,36.0,20.1,27.58,ESE,106,2.7,4.0,52,0.04,,---,0.08,VWS V14.01,2013-11-07 12:43:00,
2013-11-07 04:48:00,36.0,20.1,27.58,ENE,58,3.6,5.8,52,0.04,,---,0.08,VWS V14.01,2013-11-07 12:48:00,
2013-11-07 04:53:00,36.0,20.1,27.58,ENE,73,4.0,4.0,52,0.04,,---,0.08,VWS V14.01,2013-11-07 12:53:00,
2013-11-07 04:58:00,35.8,19.9,27.58,East,85,0.0,0.0,52,0.04,,---,0.08,VWS V14.01,2013-11-07 12:58:00,
2013-11-07 05:03:00,35.8,19.9,27.58,East,85,0.0,2.7,52,0.04,,---,0.08,VWS V14.01,2013-11-07 13:03:00,
2013-11-07 05:08:00,35.8,19.9,27.58,East,85,0.0,0.0,52,0.04,,---,0.08,VWS V14.01,2013-11-07 13:08:00,
2013-11-07 05:13:00,36.0,20.1,27.58,East,85,2.7,2.7,52,0.04,,---,0.08,VWS V14.01,2013-11-07 13:13:00,
2013-11-07 05:18:00,36.0,20.1,27.55,ENE,78,3.6,3.6,52,0.04,,---,0.08,VWS V14.01,2013-11-07 13:18:00,
2013-11-07 05:23:00,36.0,20.1,27.55,ENE,78,0.0,2.7,52,0.04,,---,0.08,VWS V14.01,2013-11-07 13:23:00,
2013-11-07 05:28:00,36.0,20.1,27.55,ENE,78,0.0,0.0,52,0.08,,---,0.12,VWS V14.01,2013-11-07 13:28:00,
2013-11-07 05:33:00,36.0,20.1,27.55,ENE,77,2.7,2.7,52,0.04,,---,0.12,VWS V14.01,2013-11-07 13:33:00,
2013-11-07 05:38:00,36.0,20.1,27.55,ENE,78,0.0,0.0,52,0.04,,---,0.12,VWS V14.01,2013-11-07 13:38:00,
2013-11-07 05:43:00,36.0,20.1,27.55,ENE,77,2.2,2.2,52,0.04,,---,0.12,VWS V14.01,2013-11-07 13:43:00,
2013-11-07 05:48:00,36.1,20.2,27.55,ENE,77,0.0,0.0,52,0.04,,---,0.12,VWS V14.01,2013-11-07 13:48:00,
2013-11-07 05:53:00,36.1,20.2,27.55,ENE,77,0.0,0.0,52,0.04,,---,0.12,VWS V14.01,2013-11-07 13:53:00,
2013-11-07 05:58:00,36.1,20.2,27.55,ENE,78,3.1,3.1,52,0.04,,---,0.12,VWS V14.01,2013-11-07 13:58:00,
2013-11-07 06:03:00,36.1,20.2,27.52,ENE,77,0.0,0.0,52,0.04,,---,0.12,VWS V14.01,2013-11-07 14:03:00,
2013-11-07 06:08:00,36.1,20.2,27.52,ENE,69,0.0,0.0,52,0.04,,---,0.12,VWS V14.01,2013-11-07 14:08:00,
2013-11-07 06:13:00,36.3,20.4,27.52,ENE,70,0.0,0.0,52,0.04,,---,0.12,VWS V14.01,2013-11-07 14:13:00,
2013-11-07 06:18:00,36.3,20.4,27.52,ENE,70,0.0,0.0,52,0.04,,---,0.12,VWS V14.01,2013-11-07 14:18:00,
2013-11-07 06:23:00,36.3,20.4,27.52,ENE,70,3.6,4.0,52,0.04,,---,0.12,VWS V14.01,2013-11-07 14:23:00,
2013-11-07 06:28:00,36.3,20.4,27.52,ENE,64,0.0,0.0,52,0.00,,---,0.12,VWS V14.01,2013-11-07 14:28:00,
2013-11-07 06:33:00,36.3,20.4,27.52,East,88,0.0,0.0,52,0.04,,---,0.16,VWS V14.01,2013-11-07 14:33:00,
2013-11-07 06:38:00,36.3,20.4,27.52,ESE,111,0.0,2.7,52,0.04,,---,0.16,VWS V14.01,2013-11-07 14:38:00,
2013-11-07 06:43:00,36.5,20.6,27.52,ESE,111,0.0,0.0,52,0.04,,---,0.16,VWS V14.01,2013-11-07 14:43:00,
2013-11-07 06:48:00,36.5,20.6,27.49,ESE,111,0.0,0.0,52,0.04,,---,0.16,VWS V14.01,2013-11-07 14:48:00,
2013-11-07 06:53:00,36.7,20.7,27.49,ESE,111,0.0,0.0,52,0.04,,---,0.16,VWS V14.01,2013-11-07 14:53:00,
2013-11-07 06:58:00,36.7,20.7,27.49,ESE,111,0.0,0.0,52,0.04,,---,0.16,VWS V14.01,2013-11-07 14:58:00,
2013-11-07 07:03:00,36.9,20.9,27.49,ESE,112,0.0,0.0,52,0.04,,---,0.16,VWS V14.01,2013-11-07 15:03:00,
2013-11-07 07:08:00,36.9,20.9,27.49,ESE,111,0.0,0.0,52,0.04,,---,0.16,VWS V14.01,2013-11-07 15:08:00,
2013-11-07 07:13:00,37.0,21.1,27.49,ESE,112,0.0,0.0,52,0.08,,---,0.20,VWS V14.01,2013-11-07 15:13:00,
2013-11-07 07:18:00,37.0,21.1,27.49,ESE,111,0.0,0.0,52,0.08,,---,0.20,VWS V14.01,2013-11-07 15:18:00,
2013-11-07 07:23:00,37.0,21.1,27.49,ESE,111,0.0,0.0,52,0.08,,---,0.20,VWS V14.01,2013-11-07 15:23:00,
2013-11-07 07:28:00,37.2,21.2,27.49,South,186,0.0,5.8,52,0.08,,---,0.20,VWS V14.01,2013-11-07 15:28:00,
2013-11-07 07:33:00,37.9,22.4,27.49,SSE,153,2.2,2.2,53,0.04,,---,0.20,VWS V14.01,2013-11-07 15:33:00,
2013-11-07 07:38:00,38.3,22.7,27.49,SSW,199,0.0,3.1,53,0.04,,---,0.20,VWS V14.01,2013-11-07 15:38:00,
2013-11-07 07:43:00,38.5,22.9,27.49,ESE,112,0.0,0.0,53,0.04,,---,0.20,VWS V14.01,2013-11-07 15:43:00,
2013-11-07 07:48:00,38.7,23.0,27.49,SE,130,0.0,0.0,53,0.04,,---,0.20,VWS V14.01,2013-11-07 15:48:00,
2013-11-07 07:53:00,38.8,23.2,27.49,SE,126,0.0,2.2,53,0.04,,---,0.20,VWS V14.01,2013-11-07 15:53:00,
2013-11-07 07:58:00,39.0,23.4,27.49,SE,126,0.0,0.0,53,0.04,,---,0.20,VWS V14.01,2013-11-07 15:58:00,
2013-11-07 08:03:00,39.2,23.1,27.49,SSE,147,2.2,2.7,52,0.04,,---,0.20,VWS V14.01,2013-11-07 16:03:00,
2013-11-07 08:08:00,39.2,23.1,27.49,West,275,2.7,2.7,52,0.04,,---,0.20,VWS V14.01,2013-11-07 16:08:00,
2013-11-07 08:13:00,39.4,23.2,27.49,SE,130,0.0,0.0,52,0.00,,---,0.20,VWS V14.01,2013-11-07 16:13:00,
2013-11-07 08:18:00,39.2,23.1,27.46,NNE,19,5.8,6.3,52,0.04,,---,0.24,VWS V14.01,2013-11-07 16:18:00,
2013-11-07 08:23:00,38.7,22.6,27.46,NE,36,4.0,4.9,52,0.04,,---,0.24,VWS V14.01,2013-11-07 16:23:00,
2013-11-07 08:28:00,38.3,22.2,27.46,NE,46,0.0,0.0,52,0.04,,---,0.24,VWS V14.01,2013-11-07 16:28:00,
2013-11-07 08:33:00,38.1,22.1,27.46,NE,47,0.0,0.0,52,0.04,,---,0.24,VWS V14.01,2013-11-07 16:33:00,
2013-11-07 08:38:00,38.3,22.2,27.46,SE,138,0.0,0.0,52,0.04,,---,0.24,VWS V14.01,2013-11-07 16:38:00,
2013-11-07 08:43:00,38.8,23.2,27.43,NE,47,0.0,0.0,53,0.04,,---,0.24,VWS V14.01,2013-11-07 16:43:00,
2013-11-07 08:48:00,39.4,23.7,27.43,NE,46,0.0,0.0,53,0.04,,---,0.24,VWS V14.01,2013-11-07 16:48:00,
2013-11-07 08:53:00,39.9,24.2,27.43,SW,224,0.0,0.0,53,0.04,,---,0.24,VWS V14.01,2013-11-07 16:53:00,
2013-11-07 08:58:00,40.3,24.5,27.43,SSW,204,0.0,0.0,53,0.04,,---,0.24,VWS V14.01,2013-11-07 16:58:00,
2013-11-07 09:03:00,40.5,24.7,27.46,ESE,104,0.0,0.0,53,0.04,,---,0.24,VWS V14.01,2013-11-07 17:03:00,
2013-11-07 09:08:00,40.6,24.9,27.46,SSE,151,2.2,2.7,53,0.04,,---,0.24,VWS V14.01,2013-11-07 17:08:00,
2013-11-07 09:13:00,41.0,25.2,27.46,SE,124,0.0,0.0,53,0.08,,---,0.28,VWS V14.01,2013-11-07 17:13:00,
2013-11-07 09:18:00,41.2,25.4,27.43,South,174,0.0,2.2,53,0.04,,---,0.28,VWS V14.01,2013-11-07 17:18:00,
2013-11-07 09:23:00,41.4,25.5,27.43,SE,140,0.0,0.0,53,0.04,,---,0.28,VWS V14.01,2013-11-07 17:23:00,
2013-11-07 09:28:00,41.5,25.7,27.43,West,265,0.0,0.0,53,0.04,,---,0.28,VWS V14.01,2013-11-07 17:28:00,
2013-11-07 09:33:00,41.5,25.7,27.43,NW,304,2.7,3.6,53,0.04,,---,0.28,VWS V14.01,2013-11-07 17:33:00,
2013-11-07 09:38:00,41.5,25.2,27.43,NW,311,3.6,4.9,52,0.04,,---,0.28,VWS V14.01,2013-11-07 17:38:00,
2013-11-07 09:43:00,41.0,24.7,27.43,SE,143,0.0,0.0,52,0.04,,---,0.28,VWS V14.01,2013-11-07 17:43:00,
2013-11-07 09:48:00,41.2,24.9,27.43,SSE,153,0.0,0.0,52,0.08,,---,0.31,VWS V14.01,2013-11-07 17:48:00,
2013-11-07 09:53:00,41.5,25.2,27.43,SSE,168,0.0,2.7,52,0.08,,---,0.31,VWS V14.01,2013-11-07 17:53:00,
2013-11-07 09:58:00,41.7,25.9,27.43,SSE,164,0.0,2.7,53,0.08,,---,0.31,VWS V14.01,2013-11-07 17:58:00,
2013-11-07 10:03:00,42.1,26.2,27.43,SSE,167,2.7,3.1,53,0.08,,---,0.31,VWS V14.01,2013-11-07 18:03:00,
2013-11-07 10:08:00,42.1,26.2,27.43,ESE,108,0.0,0.0,53,0.08,,---,0.31,VWS V14.01,2013-11-07 18:08:00,
2013-11-07 10:13:00,42.4,26.5,27.43,NW,312,0.0,0.0,53,0.04,,---,0.31,VWS V14.01,2013-11-07 18:13:00,
2013-11-07 10:18:00,42.8,26.9,27.40,SSE,160,0.0,2.2,53,0.04,,---,0.31,VWS V14.01,2013-11-07 18:18:00,
2013-11-07 10:23:00,43.3,27.4,27.40,ESE,111,2.7,2.7,53,0.04,,---,0.31,VWS V14.01,2013-11-07 18:23:00,
2013-11-07 10:28:00,43.5,27.5,27.40,SSW,200,0.0,0.0,53,0.04,,---,0.31,VWS V14.01,2013-11-07 18:28:00,
2013-11-07 10:33:00,43.9,27.9,27.40,ESE,104,0.0,0.0,53,0.04,,---,0.31,VWS V14.01,2013-11-07 18:33:00,
2013-11-07 10:38:00,43.9,27.4,27.40,WSW,249,2.7,2.7,52,0.04,,---,0.31,VWS V14.01,2013-11-07 18:38:00,
2013-11-07 10:43:00,43.9,27.4,27.40,SE,128,0.0,0.0,52,0.04,,---,0.31,VWS V14.01,2013-11-07 18:43:00,
2013-11-07 10:48:00,43.9,27.4,27.40,SW,214,0.0,0.0,52,0.04,,---,0.35,VWS V14.01,2013-11-07 18:48:00,
2013-11-07 10:53:00,44.1,27.6,27.40,SSW,199,0.0,0.0,52,0.04,,---,0.35,VWS V14.01,2013-11-07 18:53:00,
2013-11-07 10:58:00,44.1,27.6,27.40,SSW,209,0.0,0.0,52,0.04,,---,0.35,VWS V14.01,2013-11-07 18:58:00,
2013-11-07 11:03:00,44.1,27.6,27.40,SE,136,0.0,0.0,52,0.04,,---,0.35,VWS V14.01,2013-11-07 19:03:00,
2013-11-07 11:08:00,44.1,27.6,27.40,SSE,150,0.0,0.0,52,0.04,,---,0.35,VWS V14.01,2013-11-07 19:08:00,
2013-11-07 11:13:00,44.1,27.6,27.40,ESE,120,0.0,0.0,52,0.04,,---,0.35,VWS V14.01,2013-11-07 19:13:00,
2013-11-07 11:18:00,43.9,27.4,27.40,ESE,120,0.0,0.0,52,0.04,,---,0.35,VWS V14.01,2013-11-07 19:18:00,
2013-11-07 11:23:00,43.9,26.9,27.40,SE,141,2.7,3.1,51,0.04,,---,0.35,VWS V14.01,2013-11-07 19:23:00,
2013-11-07 11:28:00,44.1,27.6,27.40,SE,136,2.2,2.2,52,0.04,,---,0.35,VWS V14.01,2013-11-07 19:28:00,
2013-11-07 11:33:00,44.6,28.1,27.37,SE,134,0.0,0.0,52,0.04,,---,0.35,VWS V14.01,2013-11-07 19:33:00,
2013-11-07 11:38:00,45.1,28.6,27.37,SE,145,0.0,0.0,52,0.04,,---,0.35,VWS V14.01,2013-11-07 19:38:00,
2013-11-07 11:43:00,45.3,28.8,27.37,ESE,119,0.0,0.0,52,0.04,,---,0.35,VWS V14.01,2013-11-07 19:43:00,
2013-11-07 11:48:00,45.5,28.9,27.37,SSW,199,0.0,0.0,52,0.00,,---,0.35,VWS V14.01,2013-11-07 19:48:00,
2013-11-07 11:53:00,45.9,29.2,27.37,WSW,240,3.1,3.1,52,0.00,,---,0.35,VWS V14.01,2013-11-07 19:53:00,
2013-11-07 11:58:00,46.4,29.3,27.37,WSW,237,0.0,0.0,51,0.00,,---,0.35,VWS V14.01,2013-11-07 19:58:00,
2013-11-07 12:03:00,46.8,29.6,27.34,South,177,0.0,0.0,51,0.00,,---,0.35,VWS V14.01,2013-11-07 20:03:00,
2013-11-07 12:08:00,47.1,29.9,27.34,ESE,112,2.2,2.2,51,0.00,,---,0.35,VWS V14.01,2013-11-07 20:08:00,
2013-11-07 12:13:00,46.9,29.3,27.34,South,189,0.0,0.0,50,0.00,,---,0.35,VWS V14.01,2013-11-07 20:13:00,
2013-11-07 12:18:00,46.8,29.1,27.34,SSW,207,2.2,2.7,50,0.00,,---,0.35,VWS V14.01,2013-11-07 20:18:00,
2013-11-07 12:23:00,46.8,29.1,27.34,SW,222,3.1,3.6,50,0.00,,---,0.35,VWS V14.01,2013-11-07 20:23:00,
2013-11-07 12:28:00,46.6,29.0,27.34,SW,228,3.1,3.6,50,0.00,,---,0.35,VWS V14.01,2013-11-07 20:28:00,
2013-11-07 12:33:00,46.4,28.3,27.34,SSW,210,3.6,3.6,49,0.00,,---,0.35,VWS V14.01,2013-11-07 20:33:00,
2013-11-07 12:38:00,46.4,28.3,27.34,SSW,211,0.0,0.0,49,0.00,,---,0.35,VWS V14.01,2013-11-07 20:38:00,
2013-11-07 12:43:00,46.2,28.6,27.34,SSW,192,0.0,0.0,50,0.00,,---,0.35,VWS V14.01,2013-11-07 20:43:00,
2013-11-07 12:48:00,46.2,28.6,27.34,South,170,0.0,0.0,50,0.08,,---,0.43,VWS V14.01,2013-11-07 20:48:00,
2013-11-07 12:53:00,46.2,28.6,27.34,SE,137,4.0,4.0,50,0.08,,---,0.43,VWS V14.01,2013-11-07 20:53:00,
2013-11-07 12:58:00,45.7,27.6,27.34,SE,131,0.0,0.0,49,0.08,,---,0.43,VWS V14.01,2013-11-07 20:58:00,
2013-11-07 13:03:00,45.3,27.3,27.34,ESE,122,0.0,0.0,49,0.08,,---,0.43,VWS V14.01,2013-11-07 21:03:00,
2013-11-07 13:08:00,45.1,27.1,27.34,SE,126,0.0,0.0,49,0.08,,---,0.43,VWS V14.01,2013-11-07 21:08:00,
2013-11-07 13:13:00,45.0,27.0,27.34,SSE,153,0.0,4.0,49,0.08,,---,0.43,VWS V14.01,2013-11-07 21:13:00,
2013-11-07 13:18:00,44.8,26.8,27.32,SW,231,0.0,0.0,49,0.08,,---,0.43,VWS V14.01,2013-11-07 21:18:00,
2013-11-07 13:23:00,45.1,27.6,27.32,SW,221,0.0,0.0,50,0.08,,---,0.43,VWS V14.01,2013-11-07 21:23:00,
2013-11-07 13:28:00,45.1,27.6,27.32,South,186,2.2,2.2,50,0.08,,---,0.43,VWS V14.01,2013-11-07 21:28:00,
2013-11-07 13:33:00,45.3,27.8,27.32,SSW,192,0.0,2.2,50,0.12,,---,0.47,VWS V14.01,2013-11-07 21:33:00,
2013-11-07 13:38:00,45.3,27.8,27.32,SW,226,3.1,3.1,50,0.12,,---,0.47,VWS V14.01,2013-11-07 21:38:00,
2013-11-07 13:43:00,45.7,28.6,27.32,SW,224,5.4,5.4,51,0.12,,---,0.47,VWS V14.01,2013-11-07 21:43:00,
2013-11-07 13:48:00,45.9,28.8,27.32,South,187,5.4,5.4,51,0.04,,---,0.47,VWS V14.01,2013-11-07 21:48:00,
2013-11-07 13:53:00,46.0,29.4,27.32,WSW,239,8.3,8.3,52,0.04,,---,0.47,VWS V14.01,2013-11-07 21:53:00,
2013-11-07 13:58:00,46.2,29.6,27.32,SW,231,3.6,6.3,52,0.04,,---,0.47,VWS V14.01,2013-11-07 21:58:00,
2013-11-07 14:03:00,46.2,29.6,27.29,SW,222,5.8,8.3,52,0.04,,---,0.47,VWS V14.01,2013-11-07 22:03:00,
2013-11-07 14:08:00,46.2,29.6,27.29,WSW,247,7.6,8.3,52,0.04,,---,0.47,VWS V14.01,2013-11-07 22:08:00,
2013-11-07 14:13:00,46.2,29.6,27.29,WSW,238,5.8,8.1,52,0.04,,---,0.47,VWS V14.01,2013-11-07 22:13:00,
2013-11-07 14:18:00,46.2,29.6,27.29,WSW,248,11.0,11.0,52,0.04,,---,0.47,VWS V14.01,2013-11-07 22:18:00,
2013-11-07 14:23:00,46.2,29.6,27.29,WSW,239,8.7,8.7,52,0.04,,---,0.47,VWS V14.01,2013-11-07 22:23:00,
2013-11-07 14:28:00,46.0,29.4,27.29,WSW,257,8.1,8.1,52,0.04,,---,0.47,VWS V14.01,2013-11-07 22:28:00,
2013-11-07 14:33:00,46.0,29.4,27.29,West,268,8.3,13.2,52,0.04,,---,0.47,VWS V14.01,2013-11-07 22:33:00,
2013-11-07 14:38:00,45.9,29.2,27.29,SW,234,10.5,11.4,52,0.00,,---,0.47,VWS V14.01,2013-11-07 22:38:00,
2013-11-07 14:43:00,45.9,28.8,27.29,West,259,10.1,14.5,51,0.00,,---,0.47,VWS V14.01,2013-11-07 22:43:00,
2013-11-07 14:48:00,45.9,28.3,27.29,WSW,250,13.2,15.4,50,0.00,,---,0.47,VWS V14.01,2013-11-07 22:48:00,
2013-11-07 14:53:00,45.7,28.1,27.29,SW,226,11.0,13.2,50,0.00,,---,0.47,VWS V14.01,2013-11-07 22:53:00,
2013-11-07 14:58:00,45.7,28.1,27.29,SW,234,12.8,15.0,50,0.00,,---,0.47,VWS V14.01,2013-11-07 22:58:00,
2013-11-07 15:03:00,45.5,28.0,27.29,West,271,10.5,11.0,50,0.00,,---,0.47,VWS V14.01,2013-11-07 23:03:00,
2013-11-07 15:08:00,45.3,27.3,27.29,SW,236,12.8,13.2,49,0.00,,---,0.47,VWS V14.01,2013-11-07 23:08:00,
2013-11-07 15:13:00,45.1,27.1,27.29,SW,226,8.7,12.8,49,0.00,,---,0.47,VWS V14.01,2013-11-07 23:13:00,
2013-11-07 15:18:00,45.0,27.0,27.29,WSW,242,8.3,12.3,49,0.04,,---,0.51,VWS V14.01,2013-11-07 23:18:00,
2013-11-07 15:23:00,44.8,26.8,27.29,West,268,12.8,12.8,49,0.04,,---,0.51,VWS V14.01,2013-11-07 23:23:00,
2013-11-07 15:28:00,44.8,26.8,27.29,SW,236,7.6,12.3,49,0.04,,---,0.51,VWS V14.01,2013-11-07 23:28:00,
2013-11-07 15:33:00,44.6,26.6,27.29,WSW,238,5.4,8.7,49,0.04,,---,0.51,VWS V14.01,2013-11-07 23:33:00,
2013-11-07 15:38:00,44.4,27.0,27.29,SW,229,8.3,11.0,50,0.04,,---,0.51,VWS V14.01,2013-11-07 23:38:00,
2013-11-07 15:43:00,44.2,26.8,27.29,SW,227,8.1,8.1,50,0.04,,---,0.51,VWS V14.01,2013-11-07 23:43:00,
2013-11-07 15:48:00,44.1,26.6,27.29,West,270,7.6,12.8,50,0.04,,---,0.51,VWS V14.01,2013-11-07 23:48:00,
2013-11-07 15:53:00,43.9,26.0,27.29,West,270,11.0,14.5,49,0.04,,---,0.51,VWS V14.01,2013-11-07 23:53:00,
2013-11-07 15:58:00,43.7,25.8,27.29,WSW,241,10.5,15.4,49,0.04,,---,0.51,VWS V14.01,2013-11-07 23:58:00,
2013-11-07 16:03:00,43.5,25.1,27.32,WSW,242,17.0,19.7,48,0.04,,---,0.51,VWS V14.01,2013-11-08 00:03:00,
2013-11-07 16:08:00,43.2,24.8,27.32,WSW,256,15.0,15.0,48,0.04,,---,0.51,VWS V14.01,2013-11-08 00:08:00,
2013-11-07 16:13:00,43.0,24.6,27.32,WSW,238,12.3,16.3,48,0.04,,---,0.51,VWS V14.01,2013-11-08 00:13:00,
2013-11-07 16:18:00,42.8,25.0,27.32,SW,231,16.8,19.7,49,0.00,,---,0.51,VWS V14.01,2013-11-08 00:18:00,
2013-11-07 16:23:00,42.4,25.1,27.32,West,276,12.8,15.4,50,0.00,,---,0.51,VWS V14.01,2013-11-08 00:23:00,
2013-11-07 16:28:00,42.3,25.0,27.32,West,280,13.2,15.0,50,0.00,,---,0.51,VWS V14.01,2013-11-08 00:28:00,
2013-11-07 16:32:00,42.1,24.8,27.32,SW,232,11.0,13.6,50,0.00,,---,0.51,VWS V14.01,2013-11-08 00:32:00,
2013-11-07 16:37:00,41.7,24.5,27.32,WSW,239,10.5,15.0,50,0.00,,---,0.51,VWS V14.01,2013-11-08 00:37:00,
2013-11-07 16:42:00,41.5,24.8,27.32,NW,304,13.2,15.9,51,0.00,,---,0.51,VWS V14.01,2013-11-08 00:42:00,
2013-11-07 16:47:00,41.4,24.6,27.34,WNW,285,15.0,15.0,51,0.00,,---,0.51,VWS V14.01,2013-11-08 00:47:00,
2013-11-07 16:52:00,41.2,24.4,27.34,WSW,253,11.9,15.0,51,0.00,,---,0.51,VWS V14.01,2013-11-08 00:52:00,
2013-11-07 16:57:00,41.0,24.3,27.34,WSW,253,10.1,10.5,51,0.00,,---,0.51,VWS V14.01,2013-11-08 00:57:00,
2013-11-07 17:02:00,40.6,24.4,27.34,WSW,253,10.5,15.4,52,0.00,,---,0.51,VWS V14.01,2013-11-08 01:02:00,
2013-11-07 17:07:00,40.5,24.2,27.34,West,264,9.6,13.2,52,0.00,,---,0.51,VWS V14.01,2013-11-08 01:07:00,
2013-11-07 17:12:00,40.3,23.6,27.34,West,268,12.8,12.8,51,0.00,,---,0.51,VWS V14.01,2013-11-08 01:12:00,
2013-11-07 17:17:00,40.1,23.4,27.34,WSW,257,8.7,15.0,51,0.00,,---,0.51,VWS V14.01,2013-11-08 01:17:00,
2013-11-07 17:22:00,39.9,23.3,27.34,West,266,16.8,16.8,51,0.00,,---,0.51,VWS V14.01,2013-11-08 01:22:00,
2013-11-07 17:27:00,39.9,22.8,27.34,West,271,15.4,15.4,50,0.00,,---,0.51,VWS V14.01,2013-11-08 01:27:00,
2013-11-07 17:32:00,39.9,22.8,27.34,WSW,239,8.1,12.3,50,0.00,,---,0.51,VWS V14.01,2013-11-08 01:32:00,
2013-11-07 17:37:00,39.9,23.3,27.34,WSW,243,8.3,13.2,51,0.00,,---,0.51,VWS V14.01,2013-11-08 01:37:00,
2013-11-07 17:42:00,39.7,23.1,27.34,WSW,237,13.2,17.9,51,0.00,,---,0.51,VWS V14.01,2013-11-08 01:42:00,
2013-11-07 17:47:00,39.6,23.4,27.37,WSW,250,17.4,17.4,52,0.00,,---,0.51,VWS V14.01,2013-11-08 01:47:00,
2013-11-07 17:52:00,39.4,22.8,27.37,WSW,244,14.5,15.4,51,0.00,,---,0.51,VWS V14.01,2013-11-08 01:52:00,
2013-11-07 17:57:00,39.4,23.2,27.37,SW,234,16.3,16.3,52,0.00,,---,0.51,VWS V14.01,2013-11-08 01:57:00,
2013-11-07 18:02:00,39.4,23.2,27.37,WSW,257,11.0,13.2,52,0.00,,---,0.51,VWS V14.01,2013-11-08 02:02:00,
2013-11-07 18:07:00,39.4,23.2,27.37,WSW,243,11.9,17.4,52,0.00,,---,0.51,VWS V14.01,2013-11-08 02:07:00,
2013-11-07 18:12:00,39.4,23.7,27.37,SW,223,13.2,13.2,53,0.00,,---,0.51,VWS V14.01,2013-11-08 02:12:00,
2013-11-07 18:17:00,39.4,23.7,27.37,West,279,11.0,15.0,53,0.00,,---,0.51,VWS V14.01,2013-11-08 02:17:00,
2013-11-07 18:22:00,39.4,23.7,27.37,SW,219,11.0,15.9,53,0.00,,---,0.51,VWS V14.01,2013-11-08 02:22:00,
2013-11-07 18:27:00,39.6,23.9,27.37,WSW,238,9.6,11.0,53,0.00,,---,0.51,VWS V14.01,2013-11-08 02:27:00,
2013-11-07 18:32:00,39.6,23.9,27.37,WSW,247,7.6,11.0,53,0.00,,---,0.51,VWS V14.01,2013-11-08 02:32:00,
2013-11-07 18:37:00,39.6,23.9,27.37,WSW,249,11.0,11.0,53,0.00,,---,0.51,VWS V14.01,2013-11-08 02:37:00,
2013-11-07 18:42:00,39.6,23.9,27.37,SW,230,10.5,12.3,53,0.00,,---,0.51,VWS V14.01,2013-11-08 02:42:00,
2013-11-07 18:47:00,39.7,24.0,27.37,SW,230,7.6,11.0,53,0.00,,---,0.51,VWS V14.01,2013-11-08 02:47:00,
2013-11-07 18:52:00,39.7,24.0,27.37,WSW,247,9.6,10.1,53,0.00,,---,0.51,VWS V14.01,2013-11-08 02:52:00,
2013-11-07 18:57:00,39.7,24.0,27.37,SW,219,8.1,11.0,53,0.00,,---,0.51,VWS V14.01,2013-11-08 02:57:00,
2013-11-07 19:02:00,39.9,24.2,27.37,SW,215,12.8,15.4,53,0.00,,---,0.51,VWS V14.01,2013-11-08 03:02:00,
2013-11-07 19:07:00,39.9,24.2,27.37,WSW,253,12.3,12.3,53,0.00,,---,0.51,VWS V14.01,2013-11-08 03:07:00,
2013-11-07 19:12:00,39.9,24.2,27.37,WSW,241,6.3,8.7,53,0.00,,---,0.51,VWS V14.01,2013-11-08 03:12:00,
2013-11-07 19:17:00,40.1,24.4,27.37,WSW,248,8.1,10.5,53,0.00,,---,0.51,VWS V14.01,2013-11-08 03:17:00,
2013-11-07 19:22:00,40.1,24.8,27.37,WSW,238,13.2,14.5,54,0.00,,---,0.51,VWS V14.01,2013-11-08 03:22:00,
2013-11-07 19:27:00,40.3,25.0,27.37,West,262,9.6,12.3,54,0.00,,---,0.51,VWS V14.01,2013-11-08 03:27:00,
2013-11-07 19:32:00,40.3,25.0,27.37,SW,220,7.6,12.3,54,0.00,,---,0.51,VWS V14.01,2013-11-08 03:32:00,
2013-11-07 19:37:00,40.3,25.0,27.37,SW,229,10.1,11.0,54,0.00,,---,0.51,VWS V14.01,2013-11-08 03:37:00,
2013-11-07 19:42:00,40.5,25.1,27.37,WSW,243,8.1,10.5,54,0.00,,---,0.51,VWS V14.01,2013-11-08 03:42:00,
2013-11-07 19:47:00,40.5,25.6,27.37,WSW,254,17.4,17.4,55,0.00,,---,0.51,VWS V14.01,2013-11-08 03:47:00,
2013-11-07 19:52:00,40.6,25.3,27.37,West,274,11.0,15.4,54,0.00,,---,0.51,VWS V14.01,2013-11-08 03:52:00,
2013-11-07 19:57:00,40.6,25.3,27.37,SW,231,10.5,15.4,54,0.00,,---,0.51,VWS V14.01,2013-11-08 03:57:00,
2013-11-07 20:02:00,40.6,24.9,27.37,WSW,237,8.3,12.3,53,0.00,,---,0.51,VWS V14.01,2013-11-08 04:02:00,
2013-11-07 20:07:00,40.6,24.9,27.37,WSW,250,10.5,11.4,53,0.00,,---,0.51,VWS V14.01,2013-11-08 04:07:00,
2013-11-07 20:12:00,40.6,24.4,27.37,WSW,245,13.6,13.6,52,0.00,,---,0.51,VWS V14.01,2013-11-08 04:12:00,
2013-11-07 20:17:00,40.6,24.4,27.37,SW,231,15.0,15.0,52,0.00,,---,0.51,VWS V14.01,2013-11-08 04:17:00,
2013-11-07 20:22:00,40.6,24.4,27.37,WSW,244,8.3,10.1,52,0.00,,---,0.51,VWS V14.01,2013-11-08 04:22:00,
2013-11-07 20:27:00,40.6,23.9,27.37,WNW,284,9.6,10.1,51,0.00,,---,0.51,VWS V14.01,2013-11-08 04:27:00,
2013-11-07 20:32:00,40.6,23.5,27.37,WSW,246,9.6,12.3,50,0.00,,---,0.51,VWS V14.01,2013-11-08 04:32:00,
2013-11-07 20:37:00,40.5,22.8,27.37,West,263,13.2,13.2,49,0.00,,---,0.51,VWS V14.01,2013-11-08 04:37:00,
2013-11-07 20:42:00,40.5,22.8,27.37,WSW,250,11.0,15.4,49,0.00,,---,0.51,VWS V14.01,2013-11-08 04:42:00,
2013-11-07 20:47:00,40.3,22.7,27.37,WSW,248,12.8,12.8,49,0.00,,---,0.51,VWS V14.01,2013-11-08 04:47:00,
2013-11-07 20:52:00,40.3,22.2,27.37,SW,235,11.0,13.2,48,0.00,,---,0.51,VWS V14.01,2013-11-08 04:52:00,
2013-11-07 20:57:00,40.1,22.0,27.37,WSW,257,13.2,14.5,48,0.00,,---,0.51,VWS V14.01,2013-11-08 04:57:00,
2013-11-07 21:01:00,39.9,21.3,27.37,WSW,244,10.5,15.0,47,0.00,,---,0.51,VWS V14.01,2013-11-08 05:01:00,
2013-11-07 21:06:00,39.9,21.3,27.37,WSW,240,12.3,15.0,47,0.00,,---,0.51,VWS V14.01,2013-11-08 05:06:00,
2013-11-07 21:11:00,39.7,21.2,27.37,WSW,250,17.0,17.0,47,0.00,,---,0.51,VWS V14.01,2013-11-08 05:11:00,
2013-11-07 21:16:00,39.6,21.0,27.37,WSW,238,15.0,15.0,47,0.00,,---,0.51,VWS V14.01,2013-11-08 05:16:00,
2013-11-07 21:21:00,39.4,20.3,27.37,WSW,241,15.0,15.0,46,0.00,,---,0.51,VWS V14.01,2013-11-08 05:21:00,
2013-11-07 21:26:00,39.2,19.7,27.37,SW,232,10.5,14.1,45,0.00,,---,0.51,VWS V14.01,2013-11-08 05:26:00,
2013-11-07 21:31:00,39.0,20.0,27.37,WSW,240,11.0,11.0,46,0.00,,---,0.51,VWS V14.01,2013-11-08 05:31:00,
2013-11-07 21:36:00,39.0,20.5,27.37,West,261,15.0,15.0,47,0.00,,---,0.51,VWS V14.01,2013-11-08 05:36:00,
2013-11-07 21:41:00,39.0,20.5,27.37,SW,223,15.4,15.4,47,0.00,,---,0.51,VWS V14.01,2013-11-08 05:41:00,
2013-11-07 21:46:00,39.2,21.2,27.37,SW,229,15.4,17.4,48,0.00,,---,0.51,VWS V14.01,2013-11-08 05:46:00,
2013-11-07 21:51:00,39.4,21.3,27.37,WSW,239,11.9,15.4,48,0.00,,---,0.51,VWS V14.01,2013-11-08 05:51:00,
2013-11-07 21:56:00,39.6,21.0,27.37,SW,216,13.2,14.1,47,0.00,,---,0.51,VWS V14.01,2013-11-08 05:56:00,
2013-11-07 22:01:00,39.6,20.5,27.37,WSW,238,15.0,18.3,46,0.00,,---,0.51,VWS V14.01,2013-11-08 06:01:00,
2013-11-07 22:06:00,39.7,20.1,27.37,WSW,250,12.8,15.4,45,0.00,,---,0.51,VWS V14.01,2013-11-08 06:06:00,
2013-11-07 22:11:00,39.7,20.1,27.37,WSW,239,10.1,13.2,45,0.00,,---,0.51,VWS V14.01,2013-11-08 06:11:00,
2013-11-07 22:16:00,39.4,19.8,27.37,West,268,11.9,11.9,45,0.00,,---,0.51,VWS V14.01,2013-11-08 06:16:00,
2013-11-07 22:21:00,39.4,20.3,27.37,WSW,257,13.2,17.4,46,0.00,,---,0.51,VWS V14.01,2013-11-08 06:21:00,
2013-11-07 22:26:00,39.4,20.3,27.37,SW,235,15.9,15.9,46,0.00,,---,0.51,VWS V14.01,2013-11-08 06:26:00,
2013-11-07 22:31:00,39.6,21.0,27.37,WSW,250,11.0,15.4,47,0.00,,---,0.51,VWS V14.01,2013-11-08 06:31:00,
2013-11-07 22:36:00,39.7,21.2,27.37,WSW,248,13.2,13.2,47,0.00,,---,0.51,VWS V14.01,2013-11-08 06:36:00,
2013-11-07 22:41:00,39.7,21.2,27.37,WSW,254,13.2,17.4,47,0.00,,---,0.51,VWS V14.01,2013-11-08 06:41:00,
2013-11-07 22:46:00,39.7,20.7,27.37,WSW,251,8.3,12.8,46,0.00,,---,0.51,VWS V14.01,2013-11-08 06:46:00,
2013-11-07 22:51:00,39.7,20.7,27.37,West,277,11.9,11.9,46,0.00,,---,0.51,VWS V14.01,2013-11-08 06:51:00,
2013-11-07 22:56:00,39.7,20.1,27.37,WSW,248,10.5,13.2,45,0.00,,---,0.51,VWS V14.01,2013-11-08 06:56:00,
2013-11-07 23:01:00,39.7,20.1,27.40,West,261,8.1,12.8,45,0.00,,---,0.51,VWS V14.01,2013-11-08 07:01:00,
2013-11-07 23:06:00,39.9,20.3,27.40,West,265,8.7,8.7,45,0.00,,---,0.51,VWS V14.01,2013-11-08 07:06:00,
2013-11-07 23:11:00,39.9,20.3,27.40,SW,232,8.1,11.0,45,0.00,,---,0.51,VWS V14.01,2013-11-08 07:11:00,
2013-11-07 23:16:00,39.9,20.3,27.40,NW,316,5.4,11.0,45,0.00,,---,0.51,VWS V14.01,2013-11-08 07:16:00,
2013-11-07 23:21:00,39.9,19.8,27.40,West,263,13.2,13.2,44,0.00,,---,0.51,VWS V14.01,2013-11-08 07:21:00,
2013-11-07 23:26:00,39.9,20.3,27.40,West,267,12.8,12.8,45,0.00,,---,0.51,VWS V14.01,2013-11-08 07:26:00,
2013-11-07 23:31:00,39.9,19.8,27.40,WSW,254,8.1,8.3,44,0.00,,---,0.51,VWS V14.01,2013-11-08 07:31:00,
2013-11-07 23:36:00,39.9,20.3,27.40,SW,232,13.2,13.2,45,0.00,,---,0.51,VWS V14.01,2013-11-08 07:36:00,
2013-11-07 23:41:00,39.9,20.3,27.40,WSW,247,10.1,10.1,45,0.00,,---,0.51,VWS V14.01,2013-11-08 07:41:00,
2013-11-07 23:46:00,39.7,19.6,27.40,WSW,249,12.8,13.2,44,0.00,,---,0.51,VWS V14.01,2013-11-08 07:46:00,
2013-11-07 23:51:00,39.7,19.6,27.40,WSW,237,5.8,5.8,44,0.00,,---,0.51,VWS V14.01,2013-11-08 07:51:00,
2013-11-07 23:56:00,39.7,19.6,27.40,WSW,248,11.0,11.0,44,0.00,,---,0.51,VWS V14.01,2013-11-08 07:56:00,